sat.trackr.live / text

‹ back to catalog

STARLINK-31702

NORAD 59585 · 2024-076X

PAYLOAD ACTIVE UNKNOWN

§ Identity

Operator
Country
US
Launch date
2024-04-23
Launch site
AFETR
Launch vehicle
Mass (kg)
RCS (m²)

Purposes: comms

External: N2YO · Heavens-Above · Gunter

§ Orbital elements

Epoch: 2026-09-21T11:43:16.293792Z

Period
94.27 min
Inclination
43.0053°
Eccentricity
0.0001474
Mean motion
15.27578312 rev/d
Perigee alt
482.0 km
Apogee alt
484.1 km
Semi-major
6,861.2 km
B*
2.1636e-5
RAAN
343.5643°
Arg perigee
262.9825°
Mean anomaly
97.0859°
Rev number
13,644

§ Raw data

STARLINK-317021 59585U 24076X   26264.48838303  .00000333  00000+0  21636-4 0  99982 59585  43.0053 343.5643 0001474 262.9825  97.0859 15.27578312136444

JSON: /api/v1/satellites/59585 · /tle

For live sub-satellite position, see the globe view (requires WebGL).

§ Visibility from observer

Set your observer location to see the next 7 days of passes ≥ 10°. The values pass through the URL so the page stays shareable.

No JS? Fill the form by hand. The geolocation button needs JavaScript.